Weather reports worldwide

Advertisment
Santa Cruz de Tenerife, Spain (60020): temperature & dewpoint: 07.12.2018 09:00:00 - 13.12.2018 09:00:00 (WET)Santa Cruz de Tenerife, Spain (60020): wind speed: 07.12.2018 09:00:00 - 13.12.2018 09:00:00 (WET)Santa Cruz de Tenerife, Spain (60020): wind direction: 07.12.2018 09:00:00 - 13.12.2018 09:00:00 (WET)Santa Cruz de Tenerife, Spain (60020): reduced air pressure: 07.12.2018 09:00:00 - 13.12.2018 09:00:00 (WET)Santa Cruz de Tenerife, Spain (60020): visibility: 07.12.2018 09:00:00 - 13.12.2018 09:00:00 (WET)Santa Cruz de Tenerife, Spain (60020): precipitation: 07.12.2018 09:00:00 - 13.12.2018 09:00:00 (WET)
Date & Time tt [°C] td [°C] ff [km/h] ff [kn] dd ppp [hPa] vv [km] rr [mm]
13.12.2018 09:00:00 17,6 12,5 2 1 W 1026,9 20 -
13.12.2018 08:00:00 17,3 12,2 2 1 WSW 1026,2 20 0,0
13.12.2018 07:00:00 18,0 12,4 4 2 NE 1025,5 20 0,0
13.12.2018 06:00:00 18,9 12,2 11 6 ENE 1025,5 20 -
13.12.2018 05:00:00 18,2 12,0 8 4 N 1025,5 20 0,0
13.12.2018 04:00:00 17,3 11,6 5 3 NW 1025,8 20 0,0
13.12.2018 03:00:00 17,6 11,6 5 3 W 1025,5 20 -
13.12.2018 02:00:00 18,6 11,7 2 1 S 1025,7 20 0,0
13.12.2018 01:00:00 18,6 11,2 8 4 NNW 1026,1 20 0,0
13.12.2018 00:00:00 19,1 12,6 8 4 NNE 1026,1 20 -
12.12.2018 23:00:00 18,9 11,7 11 6 N 1026,2 20 0,0
12.12.2018 22:00:00 18,4 11,5 8 4 NNW 1026,3 20 0,0
12.12.2018 21:00:00 18,5 11,6 5 3 N 1025,5 20 -
12.12.2018 20:00:00 19,0 11,8 5 3 NNE 1025,1 20 0,0
12.12.2018 19:00:00 19,5 12,0 5 3 NNE 1024,9 20 0,0
12.12.2018 18:00:00 20,1 12,3 8 4 N 1024,5 20 -
12.12.2018 17:00:00 21,0 11,9 11 6 NE 1023,8 20 0,0
12.12.2018 16:00:00 22,3 11,7 13 7 N 1023,8 20 0,0
12.12.2018 15:00:00 22,3 12,0 15 8 NE 1023,7 20 -
12.12.2018 14:00:00 22,7 12,6 13 7 NE 1024,1 20 0,0
12.12.2018 13:00:00 22,5 13,0 11 6 N 1024,8 20 0,0
12.12.2018 12:00:00 21,5 12,6 13 7 N 1025,7 30 -
12.12.2018 11:00:00 20,9 12,6 13 7 NE 1026,1 20 0,0
12.12.2018 10:00:00 19,8 12,3 8 4 NNE 1026,1 20 -
12.12.2018 09:00:00 20,1 12,6 4 2 WNW 1025,5 30 -
12.12.2018 08:00:00 17,5 12,2 4 2 WNW 1025,0 19 0,0
12.12.2018 07:00:00 17,5 12,2 4 2 WNW 1024,5 20 0,0
12.12.2018 06:00:00 17,6 11,8 4 2 WNW 1024,2 20 -
12.12.2018 05:00:00 18,5 11,8 8 4 NNE 1024,3 20 0,0
12.12.2018 04:00:00 18,8 13,4 8 4 NE 1024,5 20 0,0
12.12.2018 03:00:00 18,2 12,2 4 2 WNW 1024,8 20 -
12.12.2018 02:00:00 18,1 12,1 2 1 NW 1025,0 20 0,0
12.12.2018 01:00:00 19,0 12,0 4 2 N 1025,6 20 0,0
12.12.2018 00:00:00 19,3 12,8 8 4 NE 1025,9 20 -
11.12.2018 23:00:00 19,6 13,1 8 4 NE 1025,9 20 0,0
11.12.2018 22:00:00 19,6 12,8 11 6 N 1026,0 20 0,0
11.12.2018 21:00:00 19,5 12,7 5 3 N 1025,8 20 -
11.12.2018 20:00:00 19,6 12,8 13 7 NE 1025,4 20 0,0
11.12.2018 19:00:00 19,9 12,9 8 4 NE 1025,3 20 0,0
11.12.2018 18:00:00 20,4 12,9 11 6 NNE 1025,0 20 -
11.12.2018 17:00:00 21,6 12,4 15 8 NE 1024,5 20 0,0
11.12.2018 16:00:00 23,5 12,2 9 5 ENE 1023,9 20 0,0
11.12.2018 15:00:00 24,3 12,3 15 8 NNW 1023,8 20 -
11.12.2018 14:00:00 23,4 14,7 15 8 E 1024,0 20 0,0
11.12.2018 13:00:00 23,5 13,9 8 4 E 1024,5 20 0,0
11.12.2018 12:00:00 21,4 15,7 13 7 E 1025,7 30 -
11.12.2018 11:00:00 21,0 15,3 11 6 E 1026,5 20 0,0
11.12.2018 10:00:00 19,8 11,3 4 2 E 1026,5 20 0,0
11.12.2018 09:00:00 17,7 7,7 9 5 W 1025,8 30 -
11.12.2018 08:00:00 16,4 5,0 9 5 W 1025,2 20 0,0
11.12.2018 07:00:00 16,4 5,4 11 6 W 1024,4 20 0,0
11.12.2018 06:00:00 16,9 4,6 11 6 W 1023,5 20 -
11.12.2018 05:00:00 17,2 5,5 9 5 WNW 1023,2 20 0,0
11.12.2018 04:00:00 18,1 6,9 9 5 WNW 1023,6 20 0,0
11.12.2018 03:00:00 16,9 9,1 4 2 WNW 1023,9 20 -
11.12.2018 02:00:00 17,1 6,9 8 4 WNW 1024,2 20 0,0
11.12.2018 01:00:00 17,3 7,3 5 3 WNW 1024,3 20 0,0
11.12.2018 00:00:00 17,5 8,4 8 4 WNW 1024,4 20 -
10.12.2018 23:00:00 18,0 11,3 11 6 W 1024,5 14 0,0
10.12.2018 22:00:00 18,4 12,2 5 3 WNW 1024,5 20 0,0
10.12.2018 21:00:00 19,4 16,2 2 1 NW 1024,2 13 -
10.12.2018 20:00:00 19,9 17,3 2 1 ENE 1023,9 12 0,0
10.12.2018 19:00:00 20,3 17,1 4 2 E 1023,4 15 0,0
10.12.2018 18:00:00 20,8 17,4 2 1 E 1023,0 16 -
10.12.2018 17:00:00 21,5 17,7 8 4 E 1022,9 17 0,0
10.12.2018 16:00:00 22,8 17,9 8 4 ESE 1022,8 18 0,0
10.12.2018 15:00:00 23,1 17,6 8 4 E 1022,7 20 -
10.12.2018 14:00:00 23,1 17,6 11 6 E 1022,9 15 0,0
10.12.2018 13:00:00 22,5 17,4 9 5 E 1023,7 19 0,0
10.12.2018 12:00:00 22,2 15,8 8 4 E 1024,8 25 -
10.12.2018 11:00:00 21,6 14,3 5 3 E 1025,6 20 0,0
10.12.2018 10:00:00 20,3 16,1 5 3 ENE 1025,3 17 0,0
10.12.2018 09:00:00 18,3 6,5 5 3 WNW 1024,9 20 -
10.12.2018 08:00:00 17,8 5,4 5 3 W 1024,2 14 0,0
10.12.2018 07:00:00 18,2 4,4 8 4 W 1023,8 20 0,0
10.12.2018 06:00:00 18,5 5,3 5 3 WNW 1023,4 20 -
10.12.2018 05:00:00 18,3 4,5 4 2 WNW 1023,3 20 0,0
10.12.2018 04:00:00 18,0 4,2 5 3 NW 1023,3 20 0,0
10.12.2018 03:00:00 17,3 4,9 8 4 W 1023,7 20 -
10.12.2018 02:00:00 16,8 8,2 5 3 WNW 1024,2 20 0,0
10.12.2018 01:00:00 17,0 10,4 5 3 WNW 1024,6 20 0,0
10.12.2018 00:00:00 17,2 10,6 8 4 W 1025,1 19 -
09.12.2018 23:00:00 17,6 10,9 8 4 W 1025,5 20 0,0
09.12.2018 22:00:00 17,7 12,8 5 3 WNW 1025,4 20 0,0
09.12.2018 21:00:00 18,2 14,3 5 3 WNW 1025,2 19 -
09.12.2018 20:00:00 19,2 16,6 2 1 N 1024,9 13 0,0
09.12.2018 19:00:00 19,8 17,0 8 4 E 1024,6 15 0,0
09.12.2018 18:00:00 20,0 17,0 8 4 E 1024,4 15 -
09.12.2018 17:00:00 20,6 17,2 9 5 E 1023,9 16 0,0
09.12.2018 16:00:00 21,8 17,4 11 6 E 1023,6 16 0,0
09.12.2018 15:00:00 22,0 17,1 11 6 E 1023,7 15 -
09.12.2018 14:00:00 22,1 16,8 13 7 E 1024,0 15 0,0
09.12.2018 13:00:00 22,1 16,6 11 6 E 1024,7 17 0,0
09.12.2018 12:00:00 20,8 16,2 9 5 E 1025,4 18 -
09.12.2018 11:00:00 20,1 15,9 8 4 E 1025,9 16 0,0
09.12.2018 10:00:00 18,9 15,2 4 2 NNE 1025,8 16 0,0
09.12.2018 09:00:00 17,7 14,4 4 2 NW 1025,0 17 -
09.12.2018 08:00:00 16,8 13,7 9 5 W 1024,7 17 0,0
09.12.2018 07:00:00 16,6 13,5 8 4 W 1024,3 17 0,0
09.12.2018 06:00:00 16,5 12,8 11 6 W 1024,0 20 -
09.12.2018 05:00:00 16,4 12,9 5 3 W 1024,0 20 0,0
09.12.2018 04:00:00 16,8 13,7 5 3 WNW 1024,0 19 0,0
09.12.2018 03:00:00 17,3 14,0 5 3 WNW 1024,4 19 -
09.12.2018 02:00:00 17,9 14,2 4 2 W 1024,6 20 0,0
09.12.2018 01:00:00 18,2 14,5 2 1 WNW 1024,9 20 0,0
09.12.2018 00:00:00 17,8 14,3 8 4 WNW 1025,3 19 -
08.12.2018 23:00:00 18,3 14,2 8 4 W 1025,5 20 0,0
08.12.2018 22:00:00 18,7 14,2 5 3 WNW 1025,2 20 0,0
08.12.2018 21:00:00 19,5 14,7 5 3 ENE 1025,0 20 -
08.12.2018 20:00:00 19,9 15,1 11 6 E 1024,9 20 0,0
08.12.2018 19:00:00 20,0 15,8 13 7 E 1024,5 20 0,0
08.12.2018 18:00:00 20,1 15,5 15 8 E 1024,1 20 -
08.12.2018 17:00:00 20,4 15,6 13 7 E 1024,0 20 0,0
08.12.2018 16:00:00 21,8 16,1 13 7 E 1023,9 20 0,0
08.12.2018 15:00:00 22,5 15,8 15 8 E 1023,9 20 -
08.12.2018 14:00:00 22,5 15,6 15 8 E 1024,6 20 0,0
08.12.2018 13:00:00 22,1 15,4 16 9 E 1025,4 20 0,0
08.12.2018 12:00:00 21,2 15,3 15 8 E 1026,5 20 -
08.12.2018 11:00:00 20,8 15,3 9 5 ENE 1027,0 20 0,0
08.12.2018 10:00:00 20,3 14,9 13 7 E 1026,9 20 0,0
08.12.2018 09:00:00 18,7 14,8 4 2 E 1026,2 20 -
08.12.2018 08:00:00 17,3 14,2 8 4 W 1025,6 20 0,0
08.12.2018 07:00:00 17,3 14,2 9 5 W 1025,2 20 0,0
08.12.2018 06:00:00 17,8 14,3 5 3 WNW 1024,6 19 -
08.12.2018 05:00:00 18,1 14,8 4 2 WNW 1024,5 20 0,0
08.12.2018 04:00:00 17,5 14,6 5 3 WNW 1024,6 20 0,0
08.12.2018 03:00:00 17,6 14,5 4 2 WNW 1024,8 20 -
08.12.2018 02:00:00 17,8 14,5 4 2 WNW 1025,1 20 0,0
08.12.2018 01:00:00 18,4 14,9 4 2 NW 1025,7 20 0,0
08.12.2018 00:00:00 18,1 14,8 5 3 W 1026,0 18 -
07.12.2018 23:00:00 18,6 14,7 5 3 W 1026,3 19 0,0
07.12.2018 22:00:00 19,0 15,3 4 2 NE 1026,4 19 0,0
07.12.2018 21:00:00 19,6 16,1 9 5 ENE 1026,3 20 -
07.12.2018 20:00:00 19,7 16,2 15 8 E 1026,0 19 0,0
07.12.2018 19:00:00 20,0 16,8 11 6 E 1025,6 19 0,0
07.12.2018 18:00:00 20,4 16,8 9 5 ENE 1025,3 17 -
07.12.2018 17:00:00 21,1 17,3 13 7 NE 1024,8 18 0,0
07.12.2018 16:00:00 22,7 17,8 11 6 ENE 1024,6 20 0,0
07.12.2018 15:00:00 22,8 17,9 11 6 E 1024,5 18 -
07.12.2018 14:00:00 23,2 18,3 8 4 E 1024,7 19 0,0
07.12.2018 13:00:00 22,7 17,8 9 5 E 1025,4 20 0,0
07.12.2018 12:00:00 22,1 17,9 9 5 ENE 1026,1 20 -
07.12.2018 11:00:00 22,8 14,1 5 3 ENE 1026,5 20 0,0
07.12.2018 10:00:00 21,6 10,1 4 2 NW 1026,2 20 0,0
07.12.2018 09:00:00 20,0 9,3 8 4 WNW 1025,5 30 -

tt = temperature
td = dewpoint
ff = wind speed
dd = wind direction
ppp = reduced air pressure
vv = visibility
rr = precipitation

Next stations